Regional Weather Roundup
Issued by NWS

Home | Current Version | Previous Version | Graphics & Text | Print | Product List | Glossary On
Versions: 1 2 3 4 5 6 7 8 9 10 11 12 13 14 15 16 17 18 19 20 21 22 23 24 25 26 27 28 29 30 31 32 33 34 35 36 37 38 39 40 41 42 43 44 45 46 47 48 49 50
174
ASUS43 KOAX 301202
RWRNE

WEATHER ROUNDUP FOR NEBRASKA
NATIONAL WEATHER SERVICE OMAHA NE
700 AM CDT SAT JUL 30 2016

NOTES: SATELLITE DATA IS BEING USED TO AUGMENT CLOUD COVER ABOVE
       12000 FEET.
       "FAIR" INDICATES FEW OR NO CLOUDS BELOW 12,000 FEET WITH NO
       SIGNIFICANT WEATHER AND/OR OBSTRUCTIONS TO VISIBILITY.

  * THESE STATIONS DO NOT REPORT WEATHER SUCH AS RAIN...SNOW OR FOG.

NEZ001>004-019>022-054>056-301300-
NEBRASKA PANHANDLE

CITY           SKY/WX    TMP DP  RH WIND       PRES   REMARKS
SCOTTSBLUFF    CLEAR     59  56  89 CALM      30.04R
6HR MIN TEMP:  59; 6HR MAX TEMP:  62;

ALLIANCE       CLOUDY    56  55  97 SE3       30.01F
6HR MIN TEMP:  53; 6HR MAX TEMP:  59;

CHADRON        CLEAR     57  54  89 CALM      29.97S
6HR MIN TEMP:  55; 6HR MAX TEMP:  62;

SIDNEY         LGT RAIN  67  59  75 VRB3      30.04R
6HR MIN TEMP:  61; 6HR MAX TEMP:  70; 6HR PCP: TRACE;

$$

NEZ057>060-069>072-079>082-301300-
SOUTHWEST NEBRASKA

CITY           SKY/WX    TMP DP  RH WIND       PRES   REMARKS
NORTH PLATTE   CLEAR     61  60  97 E6        30.01R FOG
6HR MIN TEMP:  61; 6HR MAX TEMP:  68;

IMPERIAL       CLEAR     63  60  90 SE7       30.00F
6HR MIN TEMP:  62; 6HR MAX TEMP:  67;

LEXINGTON      CLEAR     64  62  91 SE3       30.01R
MCCOOK         PTCLDY    65  63  93 CALM      30.00S FOG
6HR MIN TEMP:  64; 6HR MAX TEMP:  71;

OGALLALA       CLEAR     63  60  91 CALM      30.01S
$$

NEZ005>010-023>029-035>040-094-301300-
NORTH CENTRAL NEBRASKA

CITY           SKY/WX    TMP DP  RH WIND       PRES   REMARKS
VALENTINE      CLOUDY    66  60  81 SE13      30.00S
6HR MIN TEMP:  64; 6HR MAX TEMP:  67;

AINSWORTH      CLOUDY    62  58  88 SE10      30.01F
BROKEN BOW     CLOUDY    64  63  96 E9        30.03R
6HR MIN TEMP:  63; 6HR MAX TEMP:  65; 6HR PCP: TRACE;

O`NEILL        LGT RAIN  64  61  89 SW7       30.04R
ORD            LGT RAIN  64  62  93 S12       30.03S
6HR MIN TEMP:  60; 6HR MAX TEMP:  65; 6HR PCP:  2.16;

THEDFORD       CLOUDY    62  62  98 E5        30.04R FOG
$$

NEZ041-046>049-061>064-073>077-083>087-301300-
SOUTH CENTRAL NEBRASKA

CITY           SKY/WX    TMP DP  RH WIND       PRES   REMARKS
GRAND ISLAND   TSTM      63  62  97 CALM      30.04R
6HR MIN TEMP:  62; 6HR MAX TEMP:  66; 6HR PCP:  0.02;

AURORA         MOCLDY    63  62  99 SE6       30.03R
HASTINGS       MOCLDY    66  60  81 SE10      30.02S
6HR MIN TEMP:  65; 6HR MAX TEMP:  69; 6HR PCP: TRACE;

HEBRON         MOCLDY    62  60  94 CALM      30.02S
HOLDREGE       CLEAR     63  61  93 CALM      30.00S
KEARNEY *      CLOUDY    64  63  94 SE6       30.01S
YORK           CLOUDY    64  63  94 SE7       30.04R
$$

NEZ011>018-030>034-042>045-301300-
NORTHEAST NEBRASKA

CITY           SKY/WX    TMP DP  RH WIND       PRES   REMARKS
NORFOLK        PTCLDY    60  58  92 CALM      30.04R
6HR MIN TEMP:  57; 6HR MAX TEMP:  62;

ALBION         LGT RAIN  62  59  91 CALM      30.05R
BLAIR          CLEAR     62  60  94 CALM      30.02R
FREMONT        CLEAR     61  60  96 CALM      30.03R
TEKAMAH        PTCLDY    58  56  93 CALM      30.02R
6HR MIN TEMP:  56; 6HR MAX TEMP:  63;

WAYNE          FOG       54  54  99 CALM      30.05R VSB<1/4
$$

NEZ050>053-065>068-078-088>093-301300-
SOUTHEAST NEBRASKA

CITY           SKY/WX    TMP DP  RH WIND       PRES   REMARKS
LINCOLN        CLEAR     62  60  93 CALM      30.04R
6HR MIN TEMP:  60; 6HR MAX TEMP:  69;

OMAHA EPPLEY   PTCLDY    60  58  92 NW3       30.02R
6HR MIN TEMP:  60; 6HR MAX TEMP:  66;

BEATRICE       MOCLDY    62  61  96 CALM      30.03R
FALLS CITY     PTCLDY    61  61 100 CALM      30.01S
6HR MIN TEMP:  59; 6HR MAX TEMP:  67;

NEBRASKA CITY  CLEAR     60  60 100 S3        30.03S
PLATTSMOUTH    FOG       60  60 100 S3        30.03R VSB 1/4
$$

NEZ044-045-051>053-067-301300-
OMAHA AREA

CITY           SKY/WX    TMP DP  RH WIND       PRES   REMARKS
OMAHA EPPLEY   PTCLDY    60  58  92 NW3       30.02R
6HR MIN TEMP:  60; 6HR MAX TEMP:  66;

BLAIR          CLEAR     62  60  94 CALM      30.02R
FREMONT        CLEAR     61  60  96 CALM      30.03R
MILLARD        CLEAR     62  61  96 CALM      30.01S FOG
OFFUTT AFB     PTCLDY    61  61 100 CALM      30.01R
PLATTSMOUTH    FOG       60  60 100 S3        30.03R VSB 1/4
WAHOO          FOG       59  58  96 SW3       30.04R VSB 1
$$




USA.gov is the U.S. government's official web portal to all federal, state and local government web resources and services.